| time (UTC) | temp F | wind direction | speed MPH | gust MPH | rain 1hr in | rain 24hr in | rain mn in | humidity % | barometer mb |
| 20260510220825 | 70 | 331 | 3.0 | 6.0 | 0.00 | 0.01 | 0.01 | 43 | 1014.5 |
| 20260510215828 | 70 | 342 | 4.0 | 5.0 | 0.00 | 0.01 | 0.01 | 44 | 1014.4 |
| 20260510214834 | 71 | 250 | 1.0 | 3.0 | 0.00 | 0.01 | 0.01 | 45 | 1014.4 |
| 20260510213827 | 71 | 9 | 3.0 | 6.0 | 0.00 | 0.01 | 0.01 | 43 | 1014.3 |
| 20260510212824 | 71 | 325 | 1.0 | 7.0 | 0.00 | 0.01 | 0.01 | 42 | 1014.2 |
| 20260510211842 | 72 | 290 | 1.0 | 9.0 | 0.00 | 0.01 | 0.01 | 40 | 1014.2 |
| 20260510210832 | 72 | 280 | 3.0 | 8.0 | 0.00 | 0.01 | 0.01 | 40 | 1014.2 |
| 20260510205816 | 72 | 299 | 3.0 | 8.0 | 0.00 | 0.01 | 0.01 | 40 | 1014.1 |
| 20260510204837 | 72 | 347 | 0.0 | 6.0 | 0.00 | 0.01 | 0.01 | 43 | 1014.0 |
| 20260510203830 | 72 | 340 | 1.0 | 9.0 | 0.00 | 0.01 | 0.01 | 43 | 1014.0 |
| 20260510202822 | 73 | 338 | 1.0 | 4.0 | 0.00 | 0.01 | 0.01 | 41 | 1014.1 |
| 20260510201838 | 72 | 302 | 4.0 | 8.0 | 0.00 | 0.01 | 0.01 | 41 | 1014.2 |
| 20260510200830 | 72 | 355 | 3.0 | 9.0 | 0.00 | 0.01 | 0.01 | 42 | 1014.2 |
| 20260510195834 | 72 | 294 | 2.0 | 11.0 | 0.00 | 0.01 | 0.01 | 42 | 1014.3 |
| 20260510194817 | 72 | 326 | 3.0 | 8.0 | 0.00 | 0.01 | 0.01 | 43 | 1014.4 |
| 20260510193857 | 72 | 277 | 3.0 | 9.0 | 0.00 | 0.01 | 0.01 | 41 | 1014.4 |
| 20260510192826 | 72 | 346 | 1.0 | 6.0 | 0.00 | 0.01 | 0.01 | 43 | 1014.4 |
| 20260510191846 | 71 | 36 | 1.0 | 12.0 | 0.00 | 0.01 | 0.01 | 43 | 1014.3 |
| 20260510190816 | 71 | 346 | 4.0 | 9.0 | 0.00 | 0.01 | 0.01 | 41 | 1014.4 |
| 20260510185839 | 72 | 5 | 4.0 | 11.0 | 0.00 | 0.01 | 0.01 | 44 | 1014.3 |
| 20260510184821 | 71 | 62 | 0.0 | 8.0 | 0.00 | 0.01 | 0.01 | 46 | 1014.1 |
| 20260510183859 | 71 | 335 | 0.0 | 6.0 | 0.00 | 0.01 | 0.01 | 49 | 1014.1 |
| 20260510182831 | 71 | 344 | 3.0 | 8.0 | 0.00 | 0.01 | 0.01 | 46 | 1014.3 |
| 20260510181823 | 71 | 325 | 4.0 | 10.0 | 0.00 | 0.01 | 0.01 | 43 | 1014.3 |
| 20260510180834 | 71 | 293 | 2.0 | 5.0 | 0.00 | 0.01 | 0.01 | 47 | 1014.4 |
| 20260510175817 | 71 | 355 | 1.0 | 4.0 | 0.00 | 0.01 | 0.01 | 48 | 1014.4 |
| 20260510174822 | 70 | 319 | 1.0 | 9.0 | 0.00 | 0.01 | 0.01 | 46 | 1014.5 |
| 20260510173840 | 70 | 344 | 2.0 | 8.0 | 0.00 | 0.01 | 0.01 | 46 | 1014.7 |
| 20260510172833 | 70 | 313 | 3.0 | 6.0 | 0.00 | 0.01 | 0.01 | 45 | 1014.6 |
| 20260510171851 | 70 | 331 | 3.0 | 8.0 | 0.00 | 0.01 | 0.01 | 47 | 1014.7 |
| 20260510170821 | 69 | 63 | 1.0 | 4.0 | 0.00 | 0.01 | 0.01 | 53 | 1014.4 |
| 20260510165825 | 69 | 298 | 2.0 | 9.0 | 0.00 | 0.01 | 0.01 | 51 | 1014.4 |
| 20260510164828 | 68 | 331 | 2.0 | 8.0 | 0.00 | 0.01 | 0.01 | 52 | 1014.4 |
| 20260510163819 | 68 | 71 | 1.0 | 9.0 | 0.00 | 0.01 | 0.01 | 51 | 1014.3 |
| 20260510162839 | 68 | 355 | 2.0 | 5.0 | 0.00 | 0.01 | 0.01 | 52 | 1014.2 |
| 20260510161831 | 68 | 68 | 1.0 | 5.0 | 0.00 | 0.01 | 0.01 | 54 | 1014.4 |
| 20260510160820 | 67 | 16 | 1.0 | 6.0 | 0.00 | 0.01 | 0.01 | 54 | 1014.3 |
| 20260510155845 | 66 | 337 | 1.0 | 4.0 | 0.00 | 0.01 | 0.01 | 55 | 1014.2 |
| 20260510154829 | 66 | 282 | 3.0 | 11.0 | 0.00 | 0.01 | 0.01 | 56 | 1014.0 |
| 20260510153823 | 65 | 60 | 1.0 | 7.0 | 0.00 | 0.01 | 0.01 | 59 | 1014.1 |
| 20260510152818 | 64 | 343 | 3.0 | 9.0 | 0.00 | 0.01 | 0.01 | 59 | 1014.0 |
| 20260510151836 | 64 | 24 | 0.0 | 3.0 | 0.00 | 0.01 | 0.01 | 64 | 1014.0 |
| 20260510150828 | 64 | 78 | 1.0 | 9.0 | 0.00 | 0.01 | 0.01 | 65 | 1013.8 |
| 20260510145833 | 64 | 332 | 1.0 | 8.0 | 0.00 | 0.02 | 0.01 | 66 | 1013.8 |
| 20260510144845 | 63 | 290 | 3.0 | 8.0 | 0.00 | 0.02 | 0.01 | 63 | 1013.5 |
| 20260510143816 | 63 | 49 | 1.0 | 5.0 | 0.00 | 0.02 | 0.01 | 67 | 1013.4 |
| 20260510142824 | 63 | 327 | 1.0 | 5.0 | 0.00 | 0.02 | 0.01 | 67 | 1013.4 |
| 20260510141902 | 62 | 59 | 1.0 | 9.0 | 0.00 | 0.02 | 0.01 | 69 | 1013.1 |
| 20260510140832 | 62 | 333 | 2.0 | 5.0 | 0.00 | 0.02 | 0.01 | 68 | 1013.2 |
| 20260510135816 | 62 | 80 | 1.0 | 3.0 | 0.00 | 0.02 | 0.01 | 70 | 1013.1 |
| 20260510134820 | 62 | 335 | 3.0 | 5.0 | 0.00 | 0.02 | 0.01 | 69 | 1013.2 |
| 20260510133840 | 62 | 88 | 1.0 | 4.0 | 0.00 | 0.02 | 0.01 | 70 | 1012.7 |
| 20260510132832 | 61 | 69 | 0.0 | 3.0 | 0.00 | 0.02 | 0.01 | 71 | 1012.5 |
| 20260510131825 | 60 | 70 | 1.0 | 3.0 | 0.00 | 0.02 | 0.01 | 75 | 1012.5 |
| 20260510130817 | 59 | 333 | 1.0 | 4.0 | 0.00 | 0.02 | 0.01 | 76 | 1012.3 |
| 20260510125819 | 59 | 355 | 0.0 | 6.0 | 0.00 | 0.03 | 0.01 | 77 | 1012.3 |
| 20260510124841 | 59 | 351 | 1.0 | 2.0 | 0.00 | 0.03 | 0.01 | 77 | 1012.2 |
| 20260510123833 | 58 | 75 | 1.0 | 3.0 | 0.00 | 0.03 | 0.01 | 78 | 1011.9 |
| 20260510122826 | 57 | 69 | 0.0 | 2.0 | 0.01 | 0.03 | 0.01 | 79 | 1011.7 |
| 20260510121817 | 57 | 69 | 0.0 | 3.0 | 0.01 | 0.03 | 0.01 | 79 | 1011.5 |
| 20260510120834 | 56 | 67 | 0.0 | 2.0 | 0.01 | 0.03 | 0.01 | 80 | 1011.4 |
| 20260510115841 | 56 | 67 | 1.0 | 3.0 | 0.01 | 0.04 | 0.01 | 80 | 1011.0 |
| 20260510114823 | 56 | 355 | 0.0 | 2.0 | 0.01 | 0.04 | 0.01 | 80 | 1010.9 |
| 20260510113843 | 56 | 355 | 1.0 | 4.0 | 0.01 | 0.04 | 0.01 | 80 | 1010.6 |
| 20260510112841 | 56 | 340 | 0.0 | 1.0 | 0.00 | 0.03 | 0.00 | 80 | 1010.5 |
| 20260510111839 | 57 | 340 | 0.0 | 1.0 | 0.00 | 0.03 | 0.00 | 80 | 1010.7 |
| 20260510110832 | 57 | 340 | 0.0 | 4.0 | 0.00 | 0.03 | 0.00 | 79 | 1010.5 |
| 20260510105835 | 56 | 331 | 1.0 | 3.0 | 0.00 | 0.05 | 0.00 | 79 | 1010.5 |
| 20260510104816 | 56 | 355 | 3.0 | 5.0 | 0.00 | 0.05 | 0.00 | 79 | 1010.5 |
| 20260510103834 | 55 | 323 | 1.0 | 3.0 | 0.00 | 0.05 | 0.00 | 80 | 1010.6 |
| 20260510102828 | 55 | 323 | 0.0 | 2.0 | 0.00 | 0.05 | 0.00 | 80 | 1010.5 |
| 20260510101819 | 55 | 323 | 0.0 | 0.0 | 0.00 | 0.05 | 0.00 | 79 | 1010.2 |
| 20260510100815 | 56 | 323 | 0.0 | 0.0 | 0.00 | 0.05 | 0.00 | 79 | 1010.0 |
| 20260510095818 | 56 | 323 | 0.0 | 1.0 | 0.00 | 0.07 | 0.00 | 79 | 1009.9 |
| 20260510094820 | 56 | 323 | 0.0 | 0.0 | 0.00 | 0.07 | 0.00 | 79 | 1009.7 |
| 20260510093836 | 56 | 323 | 0.0 | 0.0 | 0.00 | 0.07 | 0.00 | 79 | 1009.8 |
| 20260510092828 | 57 | 323 | 0.0 | 3.0 | 0.00 | 0.07 | 0.00 | 79 | 1009.6 |
| 20260510091821 | 57 | 323 | 1.0 | 3.0 | 0.00 | 0.07 | 0.00 | 79 | 1009.7 |
| 20260510090841 | 57 | 323 | 0.0 | 2.0 | 0.00 | 0.07 | 0.00 | 78 | 1009.5 |
| 20260510085843 | 57 | 323 | 0.0 | 4.0 | 0.00 | 0.09 | 0.00 | 79 | 1009.3 |
| 20260510084825 | 57 | 180 | 0.0 | 3.0 | 0.00 | 0.09 | 0.00 | 78 | 1009.0 |
| 20260510083817 | 57 | 180 | 1.0 | 3.0 | 0.00 | 0.09 | 0.00 | 78 | 1009.0 |
| 20260510082833 | 57 | 175 | 1.0 | 2.0 | 0.00 | 0.09 | 0.00 | 78 | 1008.9 |
| 20260510081824 | 58 | 175 | 1.0 | 3.0 | 0.00 | 0.09 | 0.00 | 78 | 1009.0 |
| 20260510080815 | 58 | 173 | 1.0 | 2.0 | 0.00 | 0.09 | 0.00 | 78 | 1008.6 |
| 20260510075835 | 58 | 173 | 0.0 | 4.0 | 0.00 | 0.10 | 0.00 | 77 | 1008.4 |
| 20260510074838 | 58 | 173 | 0.0 | 3.0 | 0.00 | 0.10 | 0.00 | 77 | 1008.4 |
| 20260510073830 | 58 | 173 | 2.0 | 4.0 | 0.00 | 0.10 | 0.00 | 77 | 1008.3 |
| 20260510072820 | 59 | 180 | 1.0 | 3.0 | 0.00 | 0.10 | 0.00 | 76 | 1008.4 |
| 20260510071837 | 59 | 180 | 1.0 | 4.0 | 0.00 | 0.10 | 0.00 | 76 | 1008.3 |
| 20260510070828 | 58 | 192 | 1.0 | 3.0 | 0.00 | 0.10 | 0.00 | 77 | 1008.1 |
| 20260510065831 | 58 | 142 | 1.0 | 2.0 | 0.00 | 0.10 | 0.00 | 77 | 1008.2 |
| 20260510064835 | 58 | 142 | 1.0 | 4.0 | 0.00 | 0.10 | 0.00 | 77 | 1008.4 |
| 20260510063829 | 58 | 180 | 1.0 | 3.0 | 0.00 | 0.10 | 0.00 | 77 | 1008.6 |
| 20260510062820 | 58 | 189 | 0.0 | 3.0 | 0.00 | 0.10 | 0.00 | 77 | 1008.6 |
| 20260510061838 | 58 | 189 | 0.0 | 2.0 | 0.00 | 0.10 | 0.00 | 76 | 1008.7 |
| 20260510060834 | 59 | 189 | 1.0 | 3.0 | 0.00 | 0.10 | 0.00 | 75 | 1008.8 |
| 20260510055815 | 59 | 194 | 1.0 | 3.0 | 0.00 | 0.10 | 0.00 | 75 | 1008.7 |
| 20260510054838 | 59 | 194 | 1.0 | 2.0 | 0.00 | 0.10 | 0.00 | 75 | 1008.8 |
| 20260510053834 | 59 | 194 | 1.0 | 3.0 | 0.00 | 0.10 | 0.00 | 75 | 1008.8 |
| 20260510052826 | 59 | 157 | 1.0 | 3.0 | 0.00 | 0.10 | 0.00 | 75 | 1008.8 |
| 20260510051819 | 59 | 153 | 1.0 | 4.0 | 0.00 | 0.10 | 0.00 | 75 | 1008.8 |
| 20260510050838 | 59 | 178 | 1.0 | 4.0 | 0.00 | 0.10 | 0.00 | 75 | 1008.9 |
| 20260510045820 | 60 | 153 | 0.0 | 2.0 | 0.00 | 0.10 | 0.00 | 74 | 1008.8 |
| 20260510044824 | 60 | 153 | 1.0 | 3.0 | 0.00 | 0.10 | 0.00 | 74 | 1008.8 |
| 20260510043842 | 60 | 153 | 0.0 | 3.0 | 0.00 | 0.10 | 0.00 | 73 | 1008.8 |
| 20260510042839 | 61 | 167 | 1.0 | 3.0 | 0.00 | 0.10 | 0.00 | 73 | 1008.7 |
| 20260510041833 | 60 | 166 | 1.0 | 3.0 | 0.00 | 0.10 | 0.00 | 73 | 1008.7 |
| 20260510040826 | 61 | 148 | 0.0 | 3.0 | 0.00 | 0.10 | 0.00 | 73 | 1008.7 |
| 20260510035828 | 60 | 192 | 1.0 | 5.0 | 0.00 | 0.10 | 0.10 | 73 | 1008.6 |
| 20260510034831 | 61 | 185 | 1.0 | 4.0 | 0.00 | 0.10 | 0.10 | 73 | 1008.6 |
| 20260510033821 | 61 | 186 | 1.0 | 2.0 | 0.00 | 0.10 | 0.10 | 72 | 1008.7 |
| 20260510032840 | 61 | 186 | 1.0 | 3.0 | 0.00 | 0.10 | 0.10 | 72 | 1008.7 |
| 20260510031832 | 61 | 186 | 0.0 | 2.0 | 0.00 | 0.10 | 0.10 | 72 | 1008.6 |
| 20260510030823 | 61 | 186 | 0.0 | 2.0 | 0.00 | 0.10 | 0.10 | 72 | 1008.5 |
| 20260510025822 | 61 | 186 | 0.0 | 2.0 | 0.00 | 0.10 | 0.10 | 71 | 1008.5 |
| 20260510024824 | 61 | 186 | 0.0 | 2.0 | 0.00 | 0.10 | 0.10 | 71 | 1008.4 |
| 20260510023816 | 61 | 186 | 0.0 | 2.0 | 0.00 | 0.10 | 0.10 | 72 | 1008.3 |
| 20260510022831 | 61 | 186 | 0.0 | 2.0 | 0.00 | 0.10 | 0.10 | 71 | 1008.2 |
| 20260510021824 | 62 | 186 | 0.0 | 1.0 | 0.00 | 0.10 | 0.10 | 70 | 1008.0 |
| 20260510020845 | 63 | 186 | 0.0 | 3.0 | 0.00 | 0.10 | 0.10 | 69 | 1007.9 |
| 20260510015827 | 63 | 186 | 1.0 | 2.0 | 0.00 | 0.10 | 0.10 | 69 | 1007.7 |
| 20260510014851 | 63 | 186 | 0.0 | 1.0 | 0.00 | 0.10 | 0.10 | 68 | 1007.6 |
| 20260510013823 | 63 | 186 | 0.0 | 2.0 | 0.00 | 0.10 | 0.10 | 68 | 1007.5 |
| 20260510012842 | 64 | 194 | 0.0 | 1.0 | 0.00 | 0.10 | 0.10 | 67 | 1007.4 |
| 20260510011835 | 65 | 194 | 0.0 | 1.0 | 0.00 | 0.10 | 0.10 | 66 | 1007.2 |
| 20260510010826 | 65 | 194 | 1.0 | 2.0 | 0.00 | 0.10 | 0.10 | 63 | 1007.1 |
| 20260510005830 | 66 | 194 | 0.0 | 1.0 | 0.00 | 0.10 | 0.10 | 63 | 1006.9 |
| 20260510004832 | 67 | 194 | 0.0 | 1.0 | 0.00 | 0.10 | 0.10 | 62 | 1006.7 |
| 20260510003824 | 68 | 194 | 0.0 | 2.0 | 0.00 | 0.10 | 0.10 | 58 | 1006.7 |
| 20260510002816 | 69 | 194 | 0.0 | 3.0 | 0.00 | 0.10 | 0.10 | 57 | 1006.4 |
| 20260510001834 | 70 | 194 | 0.0 | 4.0 | 0.00 | 0.10 | 0.10 | 56 | 1006.2 |
| 20260510000824 | 70 | 221 | 1.0 | 6.0 | 0.00 | 0.10 | 0.10 | 55 | 1006.0 |
| 20260509235829 | 70 | 182 | 2.0 | 6.0 | 0.00 | 0.10 | 0.10 | 54 | 1005.9 |
| 20260509234832 | 71 | 165 | 3.0 | 6.0 | 0.00 | 0.10 | 0.10 | 53 | 1005.9 |
| 20260509233822 | 71 | 221 | 2.0 | 5.0 | 0.00 | 0.10 | 0.10 | 54 | 1005.9 |
| 20260509232840 | 71 | 146 | 2.0 | 9.0 | 0.00 | 0.10 | 0.10 | 53 | 1005.9 |
| 20260509231832 | 71 | 179 | 2.0 | 9.0 | 0.00 | 0.10 | 0.10 | 52 | 1005.8 |
| 20260509230826 | 71 | 192 | 4.0 | 9.0 | 0.00 | 0.10 | 0.10 | 52 | 1005.8 |
| 20260509225829 | 72 | 174 | 3.0 | 8.0 | 0.00 | 0.10 | 0.10 | 52 | 1005.7 |
| 20260509224831 | 72 | 161 | 3.0 | 8.0 | 0.00 | 0.10 | 0.10 | 52 | 1005.7 |
| 20260509223823 | 72 | 175 | 3.0 | 11.0 | 0.00 | 0.10 | 0.10 | 53 | 1005.7 |
| 20260509222902 | 72 | 189 | 4.0 | 9.0 | 0.00 | 0.10 | 0.10 | 54 | 1005.7 |
| 20260509221831 | 72 | 171 | 2.0 | 8.0 | 0.00 | 0.10 | 0.10 | 55 | 1005.6 |